#timestamp,LO_Frequency,Hit,StdDev 
1619622015.8,286046999.1,N
1619622035.6,286046997.6,N
1619622055.5,286046997.8,N
1619622075.3,286046996.8,N
1619622095.1,286046998.1,N
1619622115.9,286046999.9,N
1619622135.7,286047000.5,N
1619622155.6,286046996.6,N
1619622175.4,286046996.9,N
1619622195.2,286046996.5,N
1619622215.1,286046998.8,N
1619622216.0,286046998.8,N
1619622235.8,286047001.1,N
1619622255.6,286047000.8,N
1619622275.5,286046999.3,N
1619622295.3,286046999.3,N
1619622315.2,286046999.2,N
1619622335.9,286046998.9,N
1619622355.7,286047000.2,N
1619622375.6,286047000.3,N
1619622395.4,286047000.4,N
1619622415.2,286047002.2,N
1619622435.1,286047002.2,N
1619622436.0,286047002.2,N
1619622455.8,286047002.5,N
1619622475.7,286047001.8,N
1619622495.5,286047002.0,N
1619622515.3,286047001.8,N
1619622535.2,286047002.5,N
1619622555.0,286047003.1,N
1619622555.9,286047003.1,N
1619622575.7,286047003.0,N
1619622595.6,286047001.7,N
1619622615.4,286047002.5,N
1619622635.3,286047001.9,N
1619622655.1,286047002.5,N
1619622656.0,286047002.5,N
1619622675.8,286047001.4,N
1619622695.7,286047003.8,N
1619622715.5,286047001.8,N
1619622735.3,286047001.5,N
1619622755.2,286047001.5,N
1619622775.0,286047001.6,N
1619622775.9,286047001.6,N
1619622795.8,286047002.0,N
1619622815.6,286047001.0,N
1619622835.4,286046998.2,N
1619622855.3,286047011.9,Y
1619622875.1,286047001.2,P
1619622895.9,286046999.7,N
1619622915.7,286047004.3,P
1619622935.5,286047002.1,N
1619622955.4,286047002.2,N
1619622975.2,286047003.2,N
1619622995.0,286047001.8,N
1619622995.9,286047001.8,N
1619623015.8,286047001.7,N
1619623035.6,286047001.5,N
1619623055.5,286047004.4,Y
1619623075.3,286047002.4,P
1619623095.1,286047001.9,P
1619623115.9,286047002.1,P
1619623135.7,286047000.0,N
1619623155.5,286046999.7,N
1619623175.4,286047000.9,N
1619623195.2,286047000.2,N
1619623215.1,286046998.9,N
1619623216.0,286046998.9,N
1619623235.8,286046999.0,N
1619623255.6,286046998.6,N
1619623275.5,286046996.8,N
1619623295.3,286046997.2,N
1619623315.1,286046997.2,N
1619623335.9,286046997.0,N
1619623355.7,286046999.5,N
1619623375.6,286046998.9,N
1619623395.4,286047000.5,N
1619623415.2,286047000.4,N
1619623435.1,286047000.6,N
1619623436.0,286047000.6,N
1619623455.8,286047001.4,N
1619623475.6,286047002.0,N
1619623495.5,286046999.9,N
1619623515.3,286047000.9,N
1619623535.2,286046998.5,N
1619623555.9,286047001.1,N
1619623575.7,286046998.3,N
1619623595.6,286046998.4,N
1619623615.4,286047000.6,N
1619623635.2,286047000.9,N
1619623655.1,286046998.7,N
1619623656.0,286046998.7,N
1619623675.8,286046999.1,N
1619623695.7,286046999.6,N
1619623715.5,286046996.9,N
1619623735.3,286046997.3,N
1619623755.2,286046999.0,N
1619623775.9,286046998.1,N
1619623795.7,286046998.8,N
1619623815.6,286046999.0,N
1619623835.4,286046999.1,N
1619623855.3,286046998.9,N
1619623875.1,286046996.6,N
1619623876.0,286046996.6,N
1619623895.8,286046994.9,Y
1619623915.7,286046997.3,P
1619623935.5,286046997.4,N
1619623955.3,286046996.8,P
1619623975.2,286046997.9,N
1619623995.0,286046995.5,Y
1619623995.9,286046995.5,P
1619624015.8,286047001.1,N
1619624035.6,286047000.9,N
1619624055.4,286046999.9,N
1619624075.3,286047002.4,N
1619624095.1,286047001.7,N
1619624115.8,286047001.7,N
1619624135.7,286047002.6,N
1619624155.5,286047001.3,N
1619624175.4,286047001.8,N
1619624195.2,286047001.5,N
1619624215.0,286047001.6,N
1619624215.9,286047001.6,N
1619624235.8,286047002.4,N
1619624255.6,286047002.1,N
1619624275.5,286047001.3,N
1619624295.3,286046999.9,N
1619624315.1,286047000.5,N
1619624335.9,286047000.0,N
1619624355.7,286047000.5,N
1619624375.5,286047001.0,N
1619624395.4,286046998.5,N
1619624415.2,286046999.9,N
1619624435.0,286047001.6,N
1619624436.0,286047001.6,N
1619624455.8,286047001.3,N
1619624475.6,286047001.5,N
1619624495.5,286047002.1,N
1619624515.3,286047001.4,N
1619624535.1,286047003.5,N
1619624555.9,286047001.6,N
1619624575.7,286047004.8,Y
1619624595.6,286047004.6,P
1619624615.4,286047003.5,N
1619624635.2,286047002.2,N
1619624655.1,286047001.6,N
1619624656.0,286047001.6,N
1619624675.8,286047003.0,N
1619624695.7,286047004.3,Y
1619624715.5,286046998.4,P
1619624735.3,286046998.6,N
1619624755.2,286046997.3,N
1619624775.0,286046996.5,N
1619624775.9,286046996.5,N
1619624795.8,286046997.1,N
1619624815.6,286046997.0,N
1619624835.4,286046996.0,N
1619624855.3,286046995.7,N
1619624875.1,286046997.5,N
1619624895.8,286046997.3,N
1619624915.7,286046999.1,N
1619624935.5,286046999.0,N
1619624955.4,286046997.5,N
1619624975.2,286046996.8,N
1619624995.0,286046996.9,N
1619624995.9,286046996.9,N
1619625015.8,286046996.9,N
1619625035.6,286046996.7,N
1619625055.4,286046998.9,N
1619625075.3,286047001.0,N
1619625095.1,286047001.0,N
1619625115.9,286046996.9,N
1619625135.7,286046996.5,N
1619625155.5,286046997.8,N
1619625175.4,286046997.2,N
1619625195.2,286046996.7,N
1619625215.0,286046999.1,N
1619625215.9,286046999.1,N
1619625235.8,286046999.0,N
1619625255.6,286047002.3,N
1619625275.5,286047004.4,N
1619625295.3,286047002.3,N
1619625315.1,286047000.6,N
1619625335.9,286047000.7,N
1619625355.7,286047002.6,N
1619625375.5,286047002.1,N
1619625395.4,286047001.0,N
1619625415.2,286047000.7,N
1619625435.1,286047000.0,N
1619625436.0,286047000.0,N
1619625455.8,286047003.8,N
1619625475.6,286047003.7,N
1619625495.5,286047004.2,N
1619625515.3,286047002.6,N
1619625535.1,286047004.1,N
1619625555.9,286047003.9,N
1619625575.7,286047007.4,N
1619625595.6,286047006.7,N
